Ann Arbor, MI

11:36 PM EST on February 10, 2016 (GMT -0500)
Ann Arbor Municipal

Weather History for KARB - January, 2013

Change the Weather History Date:

Monday, January 28, 2013

  Actual Average Record
Temperature  
Mean Temperature 36 °F -  
Max Temperature 43 °F 28 °F 55 °F (2002)
Min Temperature 30 °F 11 °F -14 °F (2014)
Degree Days  
Heating Degree Days 28    
Moisture  
Dew Point 36 °F    
Average Humidity 96    
Maximum Humidity 100    
Minimum Humidity 92    
Precipitation  
Precipitation 0.21 in - - ()
Sea Level Pressure  
Sea Level Pressure 29.97 in    
Wind  
Wind Speed 9 mph (SW)    
Max Wind Speed 15 mph    
Max Gust Speed 24 mph    
Visibility 2 miles    
Events Fog , Rain , Snow    
Averages and records for this station are not official NWS values.
T = Trace of Precipitation, MM = Missing Value Source: NWS Daily Summary

Daily Weather History Graph

Daily Weather History Graph

Search for Another Location

Airport or City:

Trip Planner

Search our weather history database for the weather conditions in past years. The results will help you decide how hot, cold, wet, or windy it might be!

Date:

Astronomy

Jan. 28, 2013 Rise Set
Actual Time 7:51 AM EST 5:44 PM EST
Civil Twilight 7:21 AM EST 6:14 PM EST
Nautical Twilight 6:48 AM EST 6:48 PM EST
Astronomical Twilight 6:15 AM EST 7:21 PM EST
Moon 7:41 PM EST (1/28) 8:14 AM EST (1/28)
Length of Visible Light 10h 52m
Length of Day
9h 52m
Full, 98% of the Moon is Illuminated
Jan 28
Full
Feb 3
Last Quarter
Feb 10
New
Feb 17
First Quarter
Feb 25
Full

Hourly Weather History & Observations

Time (EST) Temp. Windchill Dew Point Humidity Pressure Visibility Wind Dir Wind Speed Gust Speed Precip Events Conditions
12:03 AM 30.2 °F 20.2 °F 28.4 °F 93% 30.12 in 3.0 mi South 12.7 mph 20.7 mph 0.02 in Rain Light Freezing Rain
12:12 AM 30.2 °F 19.8 °F 28.4 °F 93% 30.10 in 3.0 mi South 13.8 mph 20.7 mph 0.03 in Rain Light Freezing Rain
12:15 AM 30.2 °F 19.3 °F 28.4 °F 93% 30.10 in 2.5 mi South 15.0 mph 24.2 mph 0.04 in Rain Light Freezing Rain
12:34 AM 30.2 °F 20.8 °F 28.4 °F 93% 30.09 in 3.0 mi SSE 11.5 mph 19.6 mph 0.09 in Rain Light Freezing Rain
12:42 AM 30.2 °F 20.8 °F 28.4 °F 93% 30.09 in 2.5 mi South 11.5 mph 19.6 mph 0.11 in Rain Light Freezing Rain
12:51 AM 30.2 °F 21.9 °F 28.4 °F 93% 30.09 in 2.5 mi SSE 9.2 mph - 0.14 in Rain Light Freezing Rain
12:53 AM 30.9 °F 22.2 °F 28.9 °F 92% 30.12 in 3.0 mi SSE 10.4 mph - 0.14 in Rain Light Freezing Rain
1:01 AM 30.2 °F 21.9 °F 28.4 °F 93% 30.08 in 3.0 mi SSE 9.2 mph - 0.01 in Rain Light Freezing Rain
1:18 AM 30.2 °F 19.8 °F 28.4 °F 93% 30.07 in 5.0 mi SSE 13.8 mph - 0.01 in Rain Light Freezing Rain
1:34 AM 30.2 °F 22.6 °F 28.4 °F 93% 30.07 in 5.0 mi SSE 8.1 mph - 0.01 in   Overcast
1:53 AM 30.9 °F 22.2 °F 28.9 °F 92% 30.08 in 5.0 mi SSE 10.4 mph - 0.01 in   Overcast
2:53 AM 32.0 °F 26.4 °F 30.0 °F 92% 30.05 in 3.0 mi South 5.8 mph - 0.03 in   Overcast
3:12 AM 32.0 °F 24.8 °F 30.2 °F 93% 30.02 in 2.5 mi South 8.1 mph - 0.00 in   Overcast
3:29 AM 32.0 °F 26.4 °F 30.2 °F 93% 30.02 in 1.8 mi South 5.8 mph - 0.00 in   Overcast
3:49 AM 32.0 °F 25.6 °F 30.2 °F 93% 30.00 in 1.2 mi South 6.9 mph - 0.01 in Snow Light Snow
3:53 AM 32.0 °F 25.6 °F 30.9 °F 96% 30.03 in 1.2 mi South 6.9 mph - 0.01 in Snow Light Snow
4:10 AM 33.8 °F 27.7 °F 32.0 °F 93% 29.99 in 1.5 mi South 6.9 mph - 0.00 in   Overcast
4:51 AM 33.8 °F 27.0 °F 32.0 °F 93% 29.97 in 1.2 mi South 8.1 mph - 0.00 in   Overcast
4:53 AM 33.1 °F 27.7 °F 32.0 °F 96% 30.00 in 1.2 mi South 5.8 mph - 0.00 in   Overcast
5:12 AM 33.8 °F 27.7 °F 32.0 °F 93% 29.96 in 1.5 mi South 6.9 mph - N/A   Overcast
5:45 AM 33.8 °F 27.0 °F 33.8 °F 100% 29.94 in 1.0 mi SSW 8.1 mph - N/A   Overcast
5:53 AM 33.1 °F 26.9 °F 33.1 °F 100% 29.97 in 0.8 mi South 6.9 mph - N/A   Overcast
6:53 AM 34.0 °F 28.8 °F 33.1 °F 96% 29.94 in 0.5 mi SSW 5.8 mph - 0.01 in Fog Fog
7:53 AM 34.0 °F 28.0 °F 34.0 °F 100% 29.93 in 0.2 mi SSW 6.9 mph - N/A Fog Fog
8:53 AM 35.1 °F 29.3 °F 34.0 °F 96% 29.92 in 0.2 mi SSW 6.9 mph - N/A Fog Fog
9:53 AM 37.9 °F 31.5 °F 37.9 °F 100% 29.91 in 1.0 mi SW 9.2 mph - 0.01 in Rain Light Rain
10:27 AM 39.2 °F 33.6 °F 39.2 °F 100% 29.88 in 1.5 mi SW 8.1 mph - 0.00 in   Overcast
10:40 AM 39.2 °F 33.0 °F 39.2 °F 100% 29.88 in 1.2 mi SW 9.2 mph - 0.00 in   Overcast
10:53 AM 39.9 °F 33.9 °F 39.0 °F 97% 29.91 in 1.5 mi SW 9.2 mph - 0.00 in   Overcast
11:00 AM 39.2 °F 32.0 °F 39.2 °F 100% 29.88 in 1.2 mi SW 11.5 mph - N/A   Overcast
11:09 AM 39.2 °F 32.5 °F 39.2 °F 100% 29.89 in 1.5 mi SW 10.4 mph - N/A   Overcast
11:21 AM 39.2 °F 33.0 °F 39.2 °F 100% 29.89 in 1.0 mi SW 9.2 mph - N/A   Overcast
11:42 AM 41.0 °F 35.2 °F 39.2 °F 93% 29.88 in 1.5 mi SW 9.2 mph - N/A   Overcast
11:49 AM 41.0 °F 34.3 °F 39.2 °F 93% 29.88 in 1.2 mi SW 11.5 mph - N/A   Overcast
11:53 AM 41.0 °F 35.2 °F 39.9 °F 96% 29.90 in 1.5 mi SW 9.2 mph - N/A   Overcast
12:06 PM 41.0 °F 35.2 °F 41.0 °F 100% 29.88 in 1.2 mi SW 9.2 mph - N/A   Overcast
12:53 PM 42.1 °F 36.1 °F 41.0 °F 96% 29.88 in 0.8 mi SW 10.4 mph - N/A   Overcast
1:53 PM 42.1 °F 36.6 °F 42.1 °F 100% 29.88 in 0.5 mi SW 9.2 mph - N/A Fog Fog
2:53 PM 42.1 °F 36.6 °F 41.0 °F 96% 29.88 in 0.2 mi WSW 9.2 mph - N/A Fog Fog
3:53 PM 43.0 °F 38.2 °F 42.1 °F 97% 29.89 in 0.2 mi WSW 8.1 mph - N/A Fog Fog
4:53 PM 43.0 °F 38.8 °F 42.1 °F 97% 29.92 in 0.2 mi WSW 6.9 mph - N/A Fog Fog
5:04 PM 42.8 °F 38.0 °F 42.8 °F 100% 29.91 in 0.5 mi West 8.1 mph - N/A Fog Fog
5:10 PM 42.8 °F 37.5 °F 42.8 °F 100% 29.92 in 1.8 mi West 9.2 mph - N/A   Overcast
5:17 PM 42.8 °F 38.6 °F 42.8 °F 100% 29.92 in 2.5 mi West 6.9 mph - N/A   Overcast
5:25 PM 42.8 °F 39.3 °F 41.0 °F 93% 29.92 in 1.2 mi West 5.8 mph - N/A   Overcast
5:40 PM 42.8 °F 38.0 °F 42.8 °F 100% 29.93 in 2.0 mi West 8.1 mph - N/A   Overcast
5:49 PM 42.8 °F 37.5 °F 42.8 °F 100% 29.93 in 4.0 mi West 9.2 mph - N/A   Overcast
5:53 PM 42.1 °F 37.1 °F 42.1 °F 100% 29.95 in 4.0 mi West 8.1 mph - N/A   Overcast
6:53 PM 41.0 °F 35.8 °F 39.9 °F 96% 29.98 in 5.0 mi WNW 8.1 mph - N/A   Overcast
7:53 PM 39.9 °F 35.8 °F 39.0 °F 97% 30.00 in 2.5 mi NNW 5.8 mph - N/A   Overcast
8:53 PM 37.9 °F 34.4 °F 37.9 °F 100% 30.02 in 2.0 mi NNW 4.6 mph - N/A   Overcast
9:53 PM 37.0 °F 34.5 °F 37.0 °F 100% 30.02 in 2.0 mi NNW 3.5 mph - N/A   Overcast
10:11 PM 37.4 °F 34.9 °F 35.6 °F 93% 30.00 in 1.8 mi North 3.5 mph - N/A   Overcast
10:18 PM 37.4 °F 34.9 °F 35.6 °F 93% 30.00 in 2.0 mi North 3.5 mph - N/A   Overcast
10:40 PM 37.4 °F - 35.6 °F 93% 30.01 in 3.0 mi Calm Calm - N/A   Overcast
10:53 PM 37.0 °F 33.3 °F 36.0 °F 96% 30.02 in 3.0 mi North 4.6 mph - N/A   Overcast
11:40 PM 35.6 °F - 35.6 °F 100% 30.01 in 2.0 mi Calm Calm - N/A   Overcast
11:53 PM 36.0 °F 33.3 °F 35.1 °F 97% 30.02 in 1.8 mi NE 3.5 mph - N/A   Overcast